Temperature
28 28 28 29 29 29 29 28 28 28 29 29 28 28 27 27 27 26 26 25 24 24 23 22 21 20 20 19 18 18 18 18 17 17 17 17 17 16 16 16 16 16 15 15
28 28 29 30 30 29 29 28 28 29 29 29 28 28 28 28 27 27 26 25 24 23 22 22 21 20 20 19 18 18 18 18 17 17 17 17 16 16 16 16 16 15 15 15
28 29 30 30 30 29 29 29 29 29 29 29 29 28 28 28 27 26 25 25 24 23 22 21 21 20 20 19 18 18 18 17 17 17 16 16 16 16 16 16 15 15 15 15
29 30 30 30 30 30 29 30 30 29 28 28 28 27 27 27 27 26 25 24 24 23 22 21 21 20 19 19 18 18 17 17 17 17 16 16 16 16 16 15 15 15 15 15
29 30 30 30 30 30 30 30 30 29 28 28 28 27 27 27 26 26 25 25 24 23 22 21 21 20 19 19 18 18 17 17 17 17 16 16 16 15 15 15 15 15 15 15
30 31 31 30 31 31 30 30 29 29 28 26 28 27 25 26 25 25 25 24 23 23 22 21 20 20 19 19 18 17 17 17 16 16 16 16 15 15 15 15 15 15 14 15
29 30 31 31 30 30 30 28 27 26 26 26 28 27 25 26 26 26 25 25 23 22 22 21 20 19 19 18 18 17 17 16 16 16 16 16 15 15 15 15 15 14 14 14
28 28 30 31 30 29 29 28 26 25 25 26 27 26 25 27 26 26 25 25 23 22 21 21 20 19 18 18 17 17 16 16 16 16 15 15 15 15 15 15 14 14 14 14
28 28 30 31 31 30 29 28 29 27 26 26 26 25 25 26 26 26 25 24 23 22 21 20 19 19 18 17 17 16 16 16 15 15 15 15 15 15 14 14 14 14 14 14
28 27 29 31 30 30 29 29 27 26 25 25 25 25 24 25 25 25 24 24 23 22 21 20 19 18 18 17 16 16 16 15 15 15 15 15 15 14 14 14 14 14 14 14
29 27 28 29 29 29 29 28 27 27 26 25 24 24 25 24 25 24 24 23 22 21 20 20 19 18 17 17 17 16 16 15 15 15 15 15 14 14 14 14 14 14 13 13
28 27 27 28 30 30 29 29 28 26 26 26 25 24 25 25 25 24 24 23 22 21 20 19 18 18 17 17 16 16 16 15 15 15 14 14 14 14 14 14 13 13 13 13
27 26 26 26 28 28 28 29 28 28 27 25 25 24 25 25 25 24 23 22 21 20 19 19 18 17 17 16 16 16 15 15 15 15 14 14 14 14 14 13 13 13 13 13
27 26 25 25 25 26 27 28 28 27 26 25 25 24 24 24 24 23 22 21 21 20 19 18 17 17 16 16 15 15 15 15 15 14 14 14 14 13 13 13 13 13 13 13
26 26 26 26 27 27 27 28 28 27 26 26 25 25 24 24 24 23 22 21 20 19 18 18 17 16 16 15 15 15 15 14 14 14 14 14 13 13 13 13 13 13 13 13
25 25 25 25 27 27 27 27 27 27 27 26 26 25 25 24 23 22 21 21 20 19 18 17 16 16 15 15 15 15 14 14 14 14 14 14 13 13 13 13 13 13 12 12
24 24 24 25 26 27 26 26 26 26 27 26 25 25 24 24 23 22 21 20 20 19 18 17 16 15 15 15 15 14 14 14 14 14 14 13 13 13 13 13 13 12 12 12
24 23 24 25 25 23 25 27 27 26 26 26 25 25 24 23 22 21 20 20 19 18 18 17 16 15 15 14 14 14 14 14 14 14 13 13 13 13 13 12 12 12 12 12
24 23 23 24 24 24 25 26 26 25 24 25 25 24 24 23 22 21 20 19 19 18 17 16 16 15 14 14 14 14 14 14 13 13 13 13 13 13 13 12 12 12 12 12
24 23 23 23 23 22 23 25 26 25 23 24 24 23 22 22 21 20 19 19 18 17 17 16 15 15 14 14 14 14 14 13 13 13 13 13 13 13 12 12 12 12 12 12
23 22 22 22 22 22 23 24 25 23 22 23 23 22 21 21 20 19 18 18 17 17 16 15 15 14 14 14 14 13 13 13 13 13 13 13 13 13 12 12 12 12 12 12
22 21 21 21 21 21 23 23 22 21 21 22 21 21 20 19 19 18 17 17 16 16 15 15 15 14 14 14 13 13 13 13 13 13 13 13 13 13 12 12 12 12 12 12
22 21 21 20 20 20 21 21 20 21 21 21 20 20 19 19 18 17 17 16 16 15 15 15 14 14 14 13 13 13 13 13 13 13 13 12 12 12 12 12 12 12 12 12
22 21 21 20 20 20 20 20 20 20 20 20 19 19 19 18 18 17 16 16 15 15 15 14 14 14 13 13 13 13 13 13 13 12 12 12 12 12 12 12 12 12 12 12
20 20 20 19 20 20 19 19 19 19 19 19 19 19 18 18 17 16 16 15 15 14 14 14 14 13 13 13 13 13 13 13 12 12 12 12 12 12 12 12 12 12 12 12
20 19 18 18 19 19 19 18 18 18 18 18 18 18 18 17 17 16 16 15 14 14 14 13 13 13 13 13 13 13 12 12 12 12 12 12 12 12 12 12 12 12 12 12
Wind_Speed
13 13 13 13 12 10 9 10 11 8 7 7 7 6 5 5 5 4 4 5 5 6 7 7 8 8 8 8 7 5 5 4 3 2 2 2 2 2 2 2 2 2 1 1
13 16 15 13 11 10 11 12 11 8 6 6 7 6 6 7 7 6 5 5 6 6 7 7 7 8 8 8 6 6 4 4 3 3 2 2 2 1 1 1 2 2 2 1
16 12 12 12 12 13 13 12 10 8 7 8 7 7 6 7 6 6 5 5 5 7 7 7 6 6 7 7 6 5 4 3 3 2 2 2 2 1 1 1 1 0 2 2
14 14 12 12 12 11 11 10 9 9 9 8 8 7 5 5 7 7 7 6 6 7 8 8 7 6 5 6 6 5 4 3 3 2 2 3 2 2 1 1 1 1 2 2
13 12 12 12 11 11 10 8 9 11 10 11 9 7 4 5 5 6 6 6 6 6 7 7 7 6 5 5 6 6 5 3 3 2 2 2 2 1 1 1 1 2 2 2
16 13 12 11 9 10 9 10 11 10 10 11 10 7 2 3 5 5 7 7 7 7 6 7 7 6 5 4 4 6 5 3 3 3 3 2 1 1 1 1 2 2 1 2
17 16 13 11 10 9 10 9 7 7 8 9 6 5 3 4 5 6 7 8 8 8 7 7 6 5 5 4 4 5 5 3 2 2 2 1 2 2 2 2 2 1 1 1
13 12 12 11 11 9 10 10 8 7 7 6 5 3 4 8 7 7 7 8 9 8 7 7 6 6 5 4 4 4 4 3 3 2 1 0 0 1 1 1 1 2 1 0
9 10 10 10 9 10 10 9 8 8 10 9 3 3 5 8 8 8 7 7 7 7 6 7 7 6 5 4 4 3 3 2 2 2 2 1 1 1 1 1 1 1 1 0
11 10 9 9 8 10 10 7 5 7 7 8 5 4 5 9 7 7 7 6 6 6 6 6 7 6 5 5 4 3 3 3 2 2 2 2 1 0 0 0 1 1 1 1
12 10 10 10 10 10 9 9 7 7 7 7 6 1 4 5 5 6 6 6 6 6 6 6 7 6 6 5 4 4 3 3 2 2 2 2 1 1 1 0 1 1 1 1
8 8 10 11 10 9 10 9 8 7 7 7 6 1 4 7 7 7 6 6 6 7 7 7 7 7 6 5 4 4 3 3 2 3 3 2 2 1 1 1 1 1 1 1
5 6 8 10 9 7 8 9 8 8 7 6 7 3 6 7 7 7 7 7 7 7 8 7 7 6 5 4 4 3 3 3 3 3 3 2 2 1 1 1 1 1 1 1
5 6 8 9 8 8 9 10 8 8 7 7 6 5 6 6 7 8 7 8 7 8 7 7 6 5 5 4 3 3 3 2 2 3 3 2 2 1 1 1 1 0 0 0
5 8 10 11 13 10 10 10 8 8 8 7 6 5 6 6 8 8 8 8 8 8 7 7 5 5 4 4 3 2 2 2 1 2 2 2 2 2 1 1 1 1 1 1
4 6 9 12 13 12 10 9 8 7 7 6 5 4 6 8 8 8 8 8 7 7 7 6 5 5 4 3 2 2 2 1 1 1 2 2 2 1 1 1 1 1 1 2
5 6 10 12 11 11 9 6 6 6 5 4 4 3 7 7 7 8 8 7 7 6 6 6 5 4 3 3 2 1 1 1 1 0 1 1 1 1 1 1 1 1 1 1
7 7 7 10 9 11 5 2 3 3 2 1 3 5 6 7 8 8 7 7 6 5 6 5 5 4 3 3 2 1 1 1 0 0 0 1 1 1 1 1 1 1 1 1
7 7 7 8 10 9 5 3 4 4 3 1 3 4 6 8 9 7 6 6 5 5 5 5 5 4 3 2 2 1 1 1 0 0 1 1 0 0 1 1 1 1 1 1
8 7 8 8 9 8 4 4 4 3 4 2 3 5 6 5 5 5 5 5 5 5 6 5 5 5 4 2 1 1 1 1 1 1 1 1 1 1 1 1 2 2 2 2
8 7 9 10 9 6 3 3 2 3 1 4 5 6 5 3 2 6 7 5 5 6 6 5 5 4 3 2 2 1 0 1 2 2 2 1 1 1 1 1 1 2 2 2
6 5 6 7 9 6 5 2 2 4 5 5 6 6 5 5 6 8 7 6 5 5 5 5 4 4 3 3 2 1 0 1 1 2 2 2 1 3 2 1 2 2 3 3
4 2 2 2 1 4 6 7 6 6 5 4 4 5 6 5 7 7 6 5 4 4 5 4 4 3 3 3 2 1 0 1 1 2 2 2 2 2 1 1 2 2 2 3
2 1 1 1 3 4 5 6 5 5 4 4 4 4 5 6 6 6 6 5 4 3 4 3 3 3 3 2 2 1 1 1 1 1 2 2 2 2 1 1 2 2 2 2
4 3 2 2 2 3 4 4 4 4 4 4 4 4 4 5 6 6 5 4 3 2 3 3 3 3 3 2 2 2 1 1 1 1 2 3 3 1 0 0 1 1 1 1
3 1 1 1 1 1 2 2 3 3 3 3 3 3 3 4 5 5 4 4 3 3 3 3 2 2 3 2 2 1 0 1 1 2 2 3 3 2 2 1 0 2 1 2
Wind_Direction
220 230 235 236 239 252 260 257 258 261 256 254 254 252 227 188 184 176 155 154 159 137 135 139 141 137 134 131 131 129 134 137 149 163 171 166 166 168 161 153 126 136 164 192
227 230 237 244 243 247 251 262 261 263 253 254 251 253 231 200 184 176 167 155 153 142 141 138 143 144 140 140 140 139 145 150 164 166 164 160 156 176 154 115 134 155 181 219
231 236 237 246 245 244 249 255 261 262 261 249 256 257 241 195 174 156 158 154 145 149 148 145 143 142 142 142 145 148 146 148 153 137 141 140 135 136 155 160 148 173 219 218
239 241 240 241 248 251 256 256 266 262 260 261 249 262 218 192 166 163 163 154 151 150 148 148 145 138 134 144 143 135 132 135 130 142 161 170 174 184 193 208 183 195 236 231
244 237 244 246 250 253 260 266 264 266 266 269 254 258 234 175 168 174 160 151 150 138 136 141 141 139 138 139 142 135 127 132 142 162 157 181 185 184 189 192 203 212 240 239
255 248 241 251 252 248 258 263 262 262 267 261 255 246 243 175 170 177 157 149 145 138 137 134 133 127 123 122 122 128 129 136 148 157 163 178 183 189 233 253 244 234 232 240
247 242 233 230 242 239 245 252 261 256 248 253 250 231 180 144 149 151 144 144 139 136 135 135 133 128 117 108 95 104 130 135 130 137 159 189 202 217 231 254 268 259 235 227
247 240 231 223 230 239 240 245 245 262 268 270 256 221 151 136 131 125 126 133 136 141 144 141 131 123 119 109 99 102 106 122 136 145 150 193 249 244 270 301 302 299 303 256
249 249 238 226 226 239 243 245 253 263 271 274 271 140 133 138 131 126 122 124 132 137 139 136 130 127 121 110 94 95 100 104 125 146 153 165 164 244 297 302 287 301 328 313
253 262 246 226 225 231 243 252 267 262 273 274 252 219 179 160 145 134 128 124 129 132 135 132 131 125 118 113 111 103 106 105 110 147 189 147 144 223 228 269 301 309 337 11
243 256 252 230 222 234 233 238 243 256 261 270 280 267 125 131 141 136 136 134 128 126 122 127 129 121 116 109 111 103 102 101 106 99 82 75 73 39 50 37 356 18 19 14
239 246 255 249 234 233 242 244 243 250 263 271 276 244 117 135 132 127 129 124 118 117 118 119 122 120 116 110 102 97 98 105 101 90 74 70 78 50 25 28 29 36 54 32
248 246 247 250 238 224 245 248 248 251 256 261 262 198 136 130 124 122 122 117 115 117 115 109 108 108 107 103 98 91 87 81 82 87 80 64 75 73 52 37 38 39 51 21
252 247 246 248 259 249 250 257 254 253 257 257 252 182 161 148 132 122 119 121 121 119 114 111 106 101 94 91 90 86 82 85 94 93 88 76 82 85 74 91 101 95 72 55
249 244 245 249 258 260 263 257 251 254 257 256 228 200 169 150 139 134 129 129 127 127 123 117 114 107 103 92 74 69 71 71 87 107 105 103 104 103 85 64 50 58 18 328
249 259 258 253 253 254 262 267 259 251 252 244 218 195 149 134 131 135 137 137 136 134 135 131 122 116 112 106 91 68 57 73 81 103 108 100 101 103 95 92 72 74 30 341
260 255 255 259 261 265 254 261 256 253 252 241 223 163 143 142 139 139 139 142 142 138 134 132 125 117 113 102 95 85 57 49 58 45 117 125 113 82 56 7 56 43 14 348
243 265 260 260 260 256 264 247 262 270 276 205 143 153 156 146 135 128 131 132 130 130 126 124 125 120 112 110 100 88 115 112 180 267 53 129 134 116 59 15 4 351 324 318
222 243 256 256 253 246 253 294 280 257 236 106 129 137 130 130 128 124 119 118 120 116 115 115 121 125 115 107 102 96 93 83 317 287 352 329 297 74 57 352 317 286 279 285
212 220 242 251 255 254 270 314 315 242 201 89 108 121 115 133 152 137 114 107 109 105 114 118 121 123 125 122 115 107 52 28 357 346 323 338 359 3 317 285 292 292 277 268
217 219 233 246 250 255 311 319 265 223 130 73 94 107 117 125 105 123 117 109 110 115 123 127 129 130 139 142 135 134 33 359 351 346 343 344 338 284 263 259 291 278 272 275
231 231 236 245 243 244 355 3 57 71 75 87 93 98 106 106 113 118 120 117 119 129 134 135 137 142 143 145 155 172 341 342 350 354 351 338 306 290 297 301 291 283 277 266
235 232 237 257 209 68 56 71 78 93 83 89 102 111 114 120 122 122 123 123 128 142 141 137 143 142 143 155 166 189 278 311 335 353 345 331 300 288 292 272 282 277 277 288
258 32 187 183 122 108 87 81 81 89 91 90 100 115 127 131 130 130 133 137 138 139 137 139 152 156 156 165 172 196 220 284 320 332 328 302 280 269 307 310 304 310 338 329
323 330 284 226 143 100 89 66 74 83 95 98 102 112 128 135 138 139 140 139 135 133 146 148 159 164 163 171 194 207 190 263 279 274 277 282 272 245 220 279 335 338 357 304
304 321 265 300 35 45 61 63 84 90 93 108 110 114 126 143 141 139 142 138 134 136 142 147 155 169 169 177 197 184 199 273 289 282 283 281 278 241 237 224 263 24 278 233
Height
1464 1466 1464 1459 1456 1457 1458 1462 1464 1459 1453 1456 1459 1460 1460 1461 1463 1465 1468 1472 1475 1478 1480 1483 1486 1488 1490 1491 1492 1493 1493 1494 1494 1495 1496 1497 1498 1499 1500 1500 1500 1501 1501 1501
1462 1461 1455 1451 1451 1453 1457 1460 1459 1455 1450 1453 1457 1457 1455 1457 1460 1464 1468 1470 1474 1477 1479 1483 1486 1488 1489 1490 1491 1492 1492 1493 1494 1494 1495 1496 1497 1498 1499 1500 1499 1499 1500 1500
1457 1451 1448 1449 1451 1453 1454 1456 1456 1456 1452 1450 1454 1460 1456 1455 1459 1463 1467 1470 1473 1476 1479 1481 1485 1487 1489 1490 1491 1492 1492 1492 1493 1493 1494 1495 1496 1497 1498 1498 1498 1498 1498 1499
1449 1445 1445 1447 1448 1448 1454 1446 1447 1451 1457 1459 1456 1470 1460 1455 1458 1462 1466 1469 1472 1475 1478 1481 1484 1486 1488 1489 1490 1491 1491 1491 1492 1492 1493 1494 1495 1496 1497 1497 1497 1497 1497 1497
1446 1441 1443 1446 1444 1444 1446 1443 1446 1449 1453 1458 1455 1465 1463 1455 1462 1462 1465 1468 1471 1474 1477 1480 1483 1486 1488 1489 1489 1489 1490 1491 1491 1492 1492 1493 1494 1494 1495 1496 1495 1495 1495 1495
1440 1437 1438 1439 1438 1439 1441 1444 1446 1448 1453 1469 1457 1463 1469 1460 1462 1463 1464 1467 1471 1475 1477 1480 1483 1485 1487 1488 1488 1489 1489 1490 1490 1490 1491 1492 1492 1493 1494 1494 1494 1494 1494 1493
1444 1436 1433 1436 1440 1440 1442 1453 1467 1472 1473 1469 1450 1458 1467 1456 1456 1459 1462 1466 1471 1475 1478 1481 1483 1485 1486 1487 1488 1488 1489 1489 1489 1489 1490 1490 1491 1492 1492 1492 1493 1493 1493 1492
1449 1445 1432 1431 1437 1442 1443 1449 1469 1482 1478 1464 1453 1463 1461 1453 1456 1459 1462 1466 1471 1475 1478 1480 1483 1485 1486 1487 1488 1488 1488 1489 1489 1489 1489 1489 1490 1490 1491 1491 1492 1492 1492 1491
1445 1444 1428 1428 1431 1436 1443 1445 1443 1458 1460 1465 1461 1461 1461 1454 1457 1460 1463 1467 1471 1475 1478 1480 1482 1484 1486 1487 1487 1488 1488 1488 1488 1488 1488 1488 1488 1489 1489 1490 1490 1490 1490 1490
1435 1443 1431 1427 1429 1431 1435 1440 1448 1458 1472 1475 1467 1465 1465 1459 1459 1460 1463 1467 1471 1475 1478 1480 1482 1484 1485 1487 1487 1488 1488 1488 1488 1488 1488 1488 1488 1488 1488 1488 1489 1489 1489 1488
1431 1442 1436 1430 1434 1436 1438 1442 1445 1451 1455 1470 1476 1472 1452 1458 1458 1460 1463 1467 1471 1475 1477 1480 1482 1484 1485 1486 1487 1488 1488 1488 1488 1488 1487 1487 1487 1487 1487 1487 1487 1487 1487 1487
1430 1437 1442 1433 1425 1424 1430 1435 1440 1456 1458 1456 1465 1472 1451 1454 1456 1460 1463 1468 1471 1475 1477 1479 1482 1483 1485 1486 1488 1488 1488 1488 1488 1487 1487 1486 1486 1486 1486 1486 1486 1486 1486 1486
1433 1439 1450 1446 1437 1432 1433 1431 1434 1439 1446 1456 1465 1469 1451 1454 1457 1461 1464 1468 1472 1475 1477 1479 1482 1484 1485 1487 1487 1488 1488 1488 1488 1488 1487 1486 1486 1485 1485 1485 1485 1486 1486 1486
1432 1438 1447 1456 1448 1439 1439 1434 1432 1438 1449 1454 1456 1459 1455 1455 1458 1461 1465 1469 1472 1475 1478 1480 1482 1484 1485 1486 1488 1488 1488 1489 1488 1488 1487 1486 1486 1485 1485 1485 1485 1485 1485 1485
1432 1438 1439 1438 1433 1431 1432 1432 1432 1438 1441 1449 1451 1452 1453 1454 1458 1462 1465 1469 1473 1476 1478 1480 1482 1484 1485 1486 1487 1488 1488 1488 1488 1487 1487 1486 1486 1485 1485 1484 1484 1484 1484 1485
1433 1439 1439 1439 1432 1430 1433 1431 1431 1434 1436 1439 1443 1449 1448 1453 1458 1462 1465 1469 1472 1476 1478 1480 1482 1484 1485 1486 1487 1487 1487 1488 1488 1487 1487 1486 1486 1485 1485 1484 1484 1484 1483 1483
1436 1440 1443 1442 1431 1431 1439 1433 1433 1434 1433 1437 1445 1448 1449 1453 1457 1462 1465 1469 1472 1475 1478 1479 1481 1483 1484 1485 1486 1486 1486 1487 1487 1487 1487 1486 1486 1485 1485 1484 1484 1483 1483 1483
1438 1441 1440 1440 1441 1455 1439 1427 1429 1432 1434 1435 1440 1444 1448 1453 1458 1462 1465 1469 1472 1475 1477 1479 1481 1482 1484 1485 1485 1485 1485 1486 1486 1486 1486 1486 1486 1485 1484 1484 1483 1483 1482 1482
1432 1438 1441 1442 1445 1444 1436 1430 1430 1435 1439 1437 1441 1445 1449 1453 1458 1463 1466 1469 1472 1475 1477 1479 1480 1481 1483 1484 1484 1484 1485 1485 1485 1485 1485 1485 1485 1484 1484 1483 1483 1482 1482 1481
1429 1433 1440 1441 1448 1452 1442 1433 1431 1435 1445 1440 1442 1446 1451 1453 1459 1464 1466 1469 1472 1474 1476 1478 1480 1481 1482 1483 1483 1484 1484 1484 1484 1484 1484 1484 1484 1483 1482 1482 1482 1481 1481 1480
1434 1436 1440 1442 1447 1445 1437 1433 1433 1447 1451 1444 1446 1449 1453 1456 1460 1463 1466 1469 1471 1474 1476 1478 1479 1480 1481 1482 1483 1483 1483 1483 1484 1484 1483 1483 1482 1482 1482 1481 1481 1480 1479 1478
1435 1440 1443 1442 1449 1451 1438 1436 1442 1447 1446 1447 1450 1452 1455 1458 1461 1463 1466 1469 1471 1473 1475 1477 1478 1479 1480 1481 1482 1482 1482 1483 1483 1482 1482 1482 1481 1481 1481 1480 1479 1478 1478 1477
1433 1437 1439 1443 1447 1444 1442 1443 1446 1447 1448 1450 1452 1455 1457 1459 1462 1464 1467 1469 1471 1473 1474 1476 1477 1478 1479 1480 1480 1481 1481 1481 1481 1481 1480 1480 1480 1480 1479 1478 1478 1477 1476 1476
1433 1434 1436 1442 1443 1444 1445 1446 1447 1449 1451 1452 1454 1455 1457 1460 1462 1464 1467 1469 1470 1472 1474 1475 1476 1477 1478 1478 1479 1480 1480 1480 1480 1479 1479 1479 1478 1478 1478 1477 1476 1476 1475 1474
1438 1438 1439 1442 1443 1444 1446 1447 1449 1451 1452 1453 1455 1456 1458 1460 1462 1464 1466 1468 1469 1471 1473 1474 1474 1475 1476 1477 1478 1478 1478 1478 1478 1478 1477 1477 1477 1477 1476 1476 1475 1474 1474 1473
1439 1441 1443 1446 1446 1447 1449 1449 1451 1452 1453 1454 1455 1457 1459 1460 1462 1464 1465 1467 1468 1469 1471 1472 1473 1475 1475 1476 1477 1477 1477 1477 1477 1477 1477 1476 1476 1476 1475 1474 1474 1473 1472 1471